Cosmos 1802 Rocket - Orbit

View from above orbital plane
View from above orbital plane
View from above satellite
View from above satellite

Ground track
Ground track

The orbit data is extracted from the following two-line orbital elements,

1 17160U 86093B   13145.20374456  .00000075  00000-0  62948-4 0  9609
2 17160 082.9285 085.1090 0037961 325.4525 143.8525 13.74461799329009
Epoch (UTC): 25 May 2013 04:53:23
Eccentricity: 0.0037961
inclination: 82.9285°
perigee height: 955 km
apogee height: 1011 km
right ascension of ascending node: 85.1090°
argument of perigee: 325.4525°
revolutions per day: 13.74461799
mean anomaly at epoch: 143.8525°
orbit number at epoch: 32900

The dashed part of the orbit path shows where the satellite is in the earth's shadow,  

Developed and maintained by Chris Peat, Heavens-Above GmbH. Please read the updated FAQ before sending e-mail. Imprint. DLR